Location: Ahausen
(50.4985°N, 8.2722°E)
Time: 12:30:06
(UTC+00:00)

METEOR 2-10 DEB - Visible Passes

Search period start: 08 December 2022 00:00
Search period end: 18 December 2022 00:00
Orbit: 631 x 716 km, 81.1° (Epoch: 04 December)

Date Brightness Start Highest point End Pass type
(mag) Time Alt. Az. Time Alt. Az. Time Alt. Az.
10 Dec ? 06:37:39 10° NNE 06:40:17 14° ENE 06:42:53 10° E visible
12 Dec ? 06:08:31 10° NE 06:10:03 11° NE 06:11:33 10° ENE visible
13 Dec ? 06:41:25 10° N 06:45:16 23° ENE 06:49:01 10° ESE visible
15 Dec ? 06:11:40 10° NNE 06:14:59 18° ENE 06:18:15 10° ESE visible
17 Dec ? 05:42:00 10° NNE 05:44:37 14° ENE 05:47:11 10° E visible
